This is the latest recevied weather packets stored in our database for station/object PP5EO-15. If no packets are shown the sender has not sent any weather packets the latest 10 day(s).
| Time | Temp. | Humidity | Pressure | Rain* | Wind** | Luminosity | Snow |
|---|---|---|---|---|---|---|---|
| 1777751607 | 29.44° C | 51% | 1014.5 hPa | - | - | - | - |
| 1777751013 | 29.44° C | 51% | 1014.7 hPa | - | - | - | - |
| 1777750417 | 29.44° C | 51% | 1014.5 hPa | - | - | - | - |
| 1777749822 | 29.44° C | 50% | 1014.1 hPa | - | - | - | - |
| 1777749228 | 29.44° C | 50% | 1013.7 hPa | - | - | - | - |
| 1777748632 | 29.44° C | 49% | 1013.7 hPa | - | - | - | - |
| 1777748037 | 29.44° C | 48% | 1013.2 hPa | - | - | - | - |
| 1777747442 | 29.44° C | 48% | 1012.5 hPa | - | - | - | - |
| 1777746847 | 30° C | 47% | 1012.5 hPa | - | - | - | - |
| 1777746252 | 30° C | 47% | 1013.3 hPa | - | - | - | - |
| 1777745657 | 30.56° C | 45% | 1013.3 hPa | - | - | - | - |
| 1777745062 | 31.11° C | 43% | 1013.5 hPa | - | - | - | - |
| 1777744467 | 31.67° C | 42% | 1013.6 hPa | - | - | - | - |
| 1777743872 | 31.67° C | 41% | 1013.3 hPa | - | - | - | - |
| 1777743277 | 31.67° C | 39% | 1013.2 hPa | - | - | - | - |
| 1777742682 | 31.67° C | 37% | 1012.4 hPa | - | - | - | - |
| 1777742087 | 32.22° C | 37% | 1012.1 hPa | - | - | - | - |
| 1777741492 | 32.22° C | 34% | 1011.6 hPa | - | - | - | - |
| 1777740897 | 32.22° C | 38% | 1010.5 hPa | - | - | - | - |
| 1777740302 | 32.78° C | 40% | 1010.2 hPa | - | - | - | - |
| 1777739707 | 32.78° C | 41% | 1010.4 hPa | - | - | - | - |
| 1777739112 | 32.78° C | 39% | 1010.9 hPa | - | - | - | - |
| 1777738517 | 32.78° C | 38% | 1011.1 hPa | - | - | - | - |
| 1777737922 | 32.78° C | 38% | 1011.1 hPa | - | - | - | - |
| 1777737327 | 32.78° C | 40% | 1011.4 hPa | - | - | - | - |
* Rain since midnight (hover to see other rain measurements)
** Current wind speed in m/s (hover to see current wind gust speed)